Quillayute, WA
on Saturday, February 16, 2013

Saturday
Previous Day Next Day
Daily Summary
 ActualAverageRecord
Temperature
Mean Temperature °F 42°F  
Max Temperature 51°F 49°F 55°F (1997)
Min Temperature 44°F 35°F 25°F (1968)
Degree Days
Heating Degree Days 17 23  
Month to date heating degree days 324 368  
Since 1 July heating degree days 3432 3573  
Cooling Degree Days 0 0  
Month to date cooling degree days 0 0  
Year to date cooling degree days 0 0  
Moisture
Dew Point 40°F   
Average Humidity 79    
Maximum Humidity 92    
Minimum Humidity 65    
Precipitation
Precipitation 0.16 in 0.35 in 2.07 in (1994)
Month to date precipitation 3.04 6.04  
Year to date precipitation 13.38 20.65  
Wind
Wind Speed 7 mph   
Max Wind Speed 17 mph   
Max Gust Speed 24 mph   
Visibility 3 miles   
Events Rain   

Key: T is trace of precipitation, MM is missing value
Source: NWS Daily Summary
Time(PST)TemperatureDew PointHumidity Pressure Visibility Wind DirectionWind SpeedGust SpeedPrecipitationEvents Conditions
12:06 AM 44.6°F 42.8°F 93% 30.19 in 2.0 miles Calm Calm - N/A   Overcast
12:20 AM 46.4°F 42.8°F 87% 30.18 in 2.0 miles Calm Calm - N/A   Overcast
12:40 AM 46.4°F 42.8°F 87% 30.19 in 2.5 miles Calm Calm - N/A   Overcast
12:53 AM 46.0°F 42.1°F 86% 30.18 in 2.5 miles Calm Calm - N/A   Overcast
1:23 AM 46.4°F 42.8°F 87% 30.18 in 3.0 miles Calm Calm - N/A   Overcast
1:53 AM 46.9°F 43.0°F 86% 30.18 in 4.0 miles Calm Calm - N/A   Overcast
2:04 AM 46.4°F 42.8°F 87% 30.18 in 4.0 miles Calm Calm - N/A   Overcast
2:21 AM 46.4°F 42.8°F 87% 30.18 in 1.8 miles Calm Calm - 0.00 in Rain Light Rain
2:28 AM 46.4°F 42.8°F 87% 30.18 in 0.8 miles SW 4.6 mph - 0.01 in Rain Light Rain
2:37 AM 46.4°F 42.8°F 87% 30.18 in 1.0 miles SSW 3.5 mph - 0.01 in Rain Light Rain
2:53 AM 46.9°F 43.0°F 86% 30.18 in 1.5 miles West 4.6 mph - 0.01 in   Overcast
3:12 AM 46.4°F 42.8°F 87% 30.18 in 1.8 miles Calm Calm - N/A   Overcast
3:18 AM 46.4°F 42.8°F 87% 30.18 in 1.2 miles Calm Calm - N/A   Overcast
3:42 AM 46.4°F 42.8°F 87% 30.17 in 0.8 miles Calm Calm - N/A   Mist
3:53 AM 46.0°F 43.0°F 89% 30.18 in 0.8 miles WSW 3.5 mph - N/A   Mist
4:21 AM 46.4°F 42.8°F 87% 30.18 in 0.8 miles SW 3.5 mph - 0.02 in Rain Light Rain
4:42 AM 46.4°F 42.8°F 87% 30.17 in 1.0 miles SW 4.6 mph - 0.03 in Rain Light Rain
4:53 AM 46.9°F 43.0°F 86% 30.18 in 0.8 miles WSW 4.6 mph - 0.04 in Rain Light Rain
5:08 AM 46.4°F 42.8°F 87% 30.17 in 1.5 miles West 5.8 mph - 0.02 in Rain Light Rain
5:13 AM 46.4°F 42.8°F 87% 30.17 in 3.0 miles West 5.8 mph - 0.02 in   Overcast
5:27 AM 46.4°F 42.8°F 87% 30.17 in 3.0 miles SW 4.6 mph - 0.02 in   Overcast
5:34 AM 46.4°F 42.8°F 87% 30.17 in 2.5 miles SW 4.6 mph - 0.02 in   Overcast
5:53 AM 46.9°F 43.0°F 86% 30.18 in 3.0 miles WSW 4.6 mph - 0.02 in Rain Light Rain
5:59 AM 46.4°F 42.8°F 87% 30.17 in 2.5 miles WSW 6.9 mph - 0.00 in Rain Light Rain
6:16 AM 46.4°F 42.8°F 87% 30.17 in 2.0 miles WSW 9.2 mph - 0.02 in Rain Light Rain
6:32 AM 46.4°F 42.8°F 87% 30.17 in 3.0 miles WSW 10.4 mph - 0.02 in Rain Light Rain
6:35 AM 46.4°F 42.8°F 87% 30.17 in 2.5 miles WSW 9.2 mph - 0.02 in Rain Light Rain
6:41 AM 46.4°F 42.8°F 87% 30.17 in 1.8 miles WSW 10.4 mph - 0.03 in Rain Light Rain
6:51 AM 46.4°F 42.8°F 87% 30.17 in 1.2 miles WSW 8.1 mph - 0.04 in Rain Light Rain
6:53 AM 46.9°F 43.0°F 86% 30.18 in 1.2 miles WSW 6.9 mph - 0.04 in Rain Light Rain
7:00 AM 46.4°F 42.8°F 87% 30.17 in 1.8 miles West 11.5 mph - 0.00 in Rain Light Rain
7:18 AM 46.4°F 42.8°F 87% 30.17 in 1.2 miles WSW 13.8 mph - 0.02 in Rain Light Rain
7:31 AM 46.4°F 41.0°F 81% 30.18 in 1.8 miles West 10.4 mph 24.2 mph 0.03 in Rain Light Rain
7:35 AM 46.4°F 41.0°F 81% 30.18 in 3.0 miles West 10.4 mph - 0.03 in Rain Light Rain
7:40 AM 46.4°F 41.0°F 81% 30.18 in 2.5 miles West 10.4 mph - 0.03 in Rain Light Rain
7:44 AM 46.4°F 41.0°F 81% 30.18 in 1.8 miles West 9.2 mph - 0.04 in Rain Light Rain
7:53 AM 46.0°F 42.1°F 86% 30.19 in 2.5 miles West 6.9 mph - 0.04 in Rain Light Rain
8:15 AM 46.4°F 42.8°F 87% 30.18 in 2.5 miles WSW 10.4 mph - 0.00 in   Haze
8:53 AM 46.9°F 41.0°F 80% 30.20 in 2.5 miles West 9.2 mph - 0.00 in   Haze
9:03 AM 46.4°F 39.2°F 76% 30.20 in 2.0 miles West 8.1 mph - 0.00 in Rain Light Rain
9:19 AM 46.4°F 39.2°F 76% 30.20 in 3.0 miles West 4.6 mph - 0.00 in Rain Light Rain
9:38 AM 46.4°F 41.0°F 81% 30.20 in 2.5 miles West 3.5 mph - 0.00 in   Haze
9:53 AM 46.9°F 41.0°F 80% 30.21 in 2.5 miles West 5.8 mph - 0.00 in   Haze
10:11 AM 48.2°F 39.2°F 71% 30.20 in 3.0 miles West 6.9 mph - N/A   Haze
10:53 AM 46.0°F 41.0°F 83% 30.21 in 2.5 miles WSW 6.9 mph - 0.00 in Rain Light Rain
11:01 AM 46.4°F 41.0°F 81% 30.21 in 3.0 miles West 5.8 mph - 0.00 in   Haze
11:34 AM 48.2°F 39.2°F 71% 30.21 in 2.5 miles West 11.5 mph 21.9 mph 0.00 in Rain Light Rain
11:44 AM 48.2°F 39.2°F 71% 30.21 in 3.0 miles West 9.2 mph - 0.00 in   Haze
11:53 AM 48.0°F 39.9°F 74% 30.22 in 3.0 miles West 12.7 mph 18.4 mph 0.00 in   Haze
12:32 PM 48.2°F 39.2°F 71% 30.21 in 3.0 miles West 13.8 mph - N/A   Haze
12:53 PM 50.0°F 41.0°F 71% 30.21 in 3.0 miles WSW 11.5 mph - N/A   Haze
1:14 PM 48.2°F 41.0°F 76% 30.20 in 2.0 miles West 12.7 mph 21.9 mph 0.00 in Rain Light Rain
1:27 PM 48.2°F 41.0°F 76% 30.20 in 3.0 miles West 11.5 mph - 0.00 in   Haze
1:53 PM 50.0°F 41.0°F 71% 30.20 in 3.0 miles West 10.4 mph 20.7 mph 0.00 in   Haze
2:23 PM 48.2°F 39.2°F 71% 30.21 in 3.0 miles West 9.2 mph 16.1 mph 0.00 in   Haze
2:53 PM 48.0°F 39.0°F 71% 30.22 in 3.0 miles WNW 10.4 mph 18.4 mph 0.00 in   Haze
3:53 PM 46.9°F 37.0°F 68% 30.22 in 3.0 miles NW 9.2 mph 21.9 mph N/A   Haze
4:53 PM 46.0°F 36.0°F 68% 30.22 in 3.0 miles Variable 6.9 mph 19.6 mph N/A   Haze
5:24 PM 46.4°F 35.6°F 66% 30.21 in 2.5 miles WNW 6.9 mph - 0.00 in Rain Light Rain
5:41 PM 46.4°F 35.6°F 66% 30.21 in 3.0 miles WNW 8.1 mph - N/A   Haze
5:53 PM 46.0°F 35.1°F 66% 30.22 in 4.0 miles WNW 6.9 mph 17.3 mph 0.00 in   Haze
6:00 PM 46.4°F 35.6°F 66% 30.21 in 4.0 miles West 4.6 mph - N/A   Haze
6:33 PM 46.4°F 35.6°F 66% 30.22 in 4.0 miles West 8.1 mph - N/A   Haze
6:53 PM 46.0°F 35.1°F 66% 30.22 in 4.0 miles West 8.1 mph - N/A   Haze
7:39 PM 44.6°F 35.6°F 71% 30.22 in 2.5 miles West 3.5 mph - 0.00 in Rain Light Rain
7:53 PM 44.1°F 37.0°F 76% 30.22 in 4.0 miles WNW 5.8 mph - 0.01 in Rain Light Rain
8:03 PM 44.6°F 37.4°F 76% 30.21 in 4.0 miles NW 6.9 mph - 0.00 in Rain Light Rain
8:53 PM 45.0°F 36.0°F 71% 30.22 in 4.0 miles West 9.2 mph - 0.00 in   Haze
9:53 PM 45.0°F 35.1°F 68% 30.22 in 4.0 miles WNW 8.1 mph - 0.00 in   Haze
10:53 PM 45.0°F 35.1°F 68% 30.23 in 4.0 miles West 6.9 mph - 0.00 in Rain Light Rain
11:05 PM 44.6°F 35.6°F 71% 30.23 in 4.0 miles WNW 9.2 mph - 0.00 in Rain Light Rain
11:26 PM 44.6°F 35.6°F 71% 30.22 in 4.0 miles WNW 6.9 mph - 0.00 in   Haze
11:53 PM 45.0°F 34.0°F 65% 30.23 in 4.0 miles WNW 5.8 mph - 0.00 in   Haze
Moon Phase
Feb. 16 Feb. 17 Feb. 25 Mar. 04 Mar. 11
Sunrise:07:22 AM (PST) Moon Rise:10:05 AM (PST)2/16
Sunset:05:43 PM (PST) Moon Set:12:20 AM (PST)2/16

Copyright © 2014 The Weather Underground, Inc.